CZ-6A DEB

Satellite information

Favourite Embed

Satellite Type and Status

DEBRISIN ORBIT

Key statistics

Satellite CZ-6A DEB at a glance.

Uptime

1031

Days in orbit

Revolutions

≈ 14.3

Per day

Orbit

SSO

Sun Synchronous Orbit

Inclination

98.8

Latest

Satellite identification and parameters

Extended collection of information and parameters for CZ-6A DEB.

Object identification

Identified? True

Debris? True

Object name: CZ-6A DEB

International designator: 2022-151JW

Object number (NORAD): 54518

Object ID (CCSDS): 54518

Country: PEOPLES REPUBLIC OF CHINA (PRC)

Current information (Y/N): Y

RCS size: SMALL

Orbital parameters

Period: 100.751 minutes

Inclination: 98.8048 deg

SMA: 7172.306 km

Apoapsis: 884.782 km

Periapsis: 703.56 km

RAAN: 281.9025 deg

Eccentricy: 0.01263349

Argument of periapsis: 222.781 deg

Mean anomaly: 136.3485 deg

Mean motion: 14.29270817 rev/day

Mean motion (dot): 0.00001934 rev/day2

B* drag term: 0.0007145214 1/REarth

Two-line elements (TLE)

Creation date: Sept. 7, 2025, 3:09 a.m.

Reference frame: TEME

Reference center: EARTH

Epoch: Sept. 6, 2025, 7:17 p.m. UTC

TLE line 0: 0 CZ-6A DEB

TLE line 1: 1 54518U 22151JW 25249.80413843 .00001934 00000-0 71452-3 0 9996

TLE line 2: 2 54518 98.8048 281.9025 0126335 222.7810 136.3485 14.29270817146609

Live tracking on map

Real-time ground track for satellite CZ-6A DEB.

In-orbit conjunctions

A list of the most updated potential collisions computed for object CZ-6A DEB.

Target Orbit TCA Probability of collision Miss distance Type
CZ-4 DEB SSO 2025-03-25 19:01:03 0.0002402041 36.0 (m) DEBRIS
DMSP 5D-2 F13 DEB SSO 2024-11-15 12:46:59 0.0002844926 731.0 (m) DEBRIS

Associated space launch

Chinese satellite reported for atmospheric/ocean/environmental/spatial parameter research purposes, details TBD.

CZ-6A DEB was lifted into orbit during the mission ‘Long March 6A | Yunhai 3’, on board a Long March 6A space rocket.

The launch took place on Nov. 11, 2022, 10:52 p.m. from Launch Complex 9A.

For more information about the launch, click the button.

Launch to space Long March 6A | Yunhai 3
Long March 6A | Yunhai 3

Agency: N/A

Status: Launch Successful

Launch date: Nov. 11, 2022, 10:52 p.m. UTC

Rocket: Long March 6A

Launch pad: Launch Complex 9A

Location: Taiyuan Satellite Launch Center, People's Republic of China

...

Latest news about this satellite

There are no fresh news available about this satellite. Check back as we update our databases every day.


Newsletter sign-up

Weekly statistics, charts and insights to help you stay on top of the space industry.